Location: Newark
(55.7678°N, 23.6664°E)
Time: 19:18:13
(UTC+00:00)

N. Korean satellite - Pass Details

Date: 26 September 2020
Orbit: 452 x 505 km, 97.2° (Epoch: 28 October)

Event Time Altitude Azimuth Distance (km) Brightness Sun altitude
Rises 03:15:06 0° 23° (NNE) 2,609 10.8 -9.7°
Reaches altitude 10° 03:17:33 10° 39° (NE) 1,712 10.1 -9.4°
Maximum altitude 03:20:30 22° 92° (E) 1,120 9.5 -9.0°
Drops below altitude 10° 03:23:23 10° 145° (SE) 1,677 9.6 -8.6°
Sets 03:25:45 0° 161° (SSE) 2,542 10.3 -8.3°
